Regional Weather Roundup
Issued by NWS Goodland, KS

Home | Current Version | Previous Version | Text Only | Print | Product List | Glossary On
Versions: 1 2 3 4 5 6 7 8 9 10 11 12 13 14 15 16 17 18 19 20 21 22 23 24 25 26 27 28 29 30 31 32 33 34 35 36 37 38 39 40 41 42 43 44 45 46 47 48 49 50
000
ASUS43 KGLD 290508
RWRGLD

GOODLAND FORECAST AREA HOURLY WEATHER ROUNDUP
NATIONAL WEATHER SERVICE GOODLAND KS
1100 PM MDT SAT MAY 28 2016

...OFFICIAL OBSERVATIONS...

CITY           SKY/WX    TMP DP  RH WIND       PRES   REMARKS
GOODLAND KS    CLEAR     57  48  72 W7        30.09R
HILL CITY KS   CLEAR     57  54  89 CALM      30.04R
IMPERIAL NEB   TSTM      59  51  75 MISG      30.11R
MCCOOK NEB     CLOUDY    62  52  69 N21G28    30.07R
AKRON CO       CLOUDY    58  41  53 S13       30.12R
BURLINGTON CO  PTCLDY    55  47  74 CALM      30.13R
LIMON CO       CLOUDY    50  45  83 N10       30.17R
$$

...UNOFFICIAL OBSERVATIONS...

CITY           SKY/WX    TMP DP  RH WIND       PRES   REMARKS
GOVE KS          N/A     62  32  32 MISG        N/A
LENORA KS        N/A     61  32  33 MISG        N/A
SHARON SPRINGS   N/A     59  52  77 SE7         N/A
KIT CARSON CO    N/A     59  49  70 MISG        N/A
YUMA CO          N/A     59  44  56 CALM        N/A
$$



USA.gov is the U.S. government's official web portal to all federal, state and local government web resources and services.